Terminal Aerodrome Forecast
Issued by NWS

Home | Current Version | Previous Version | Text Only | Print | Product List | Glossary On
Versions: 1 2 3 4 5 6 7 8 9 10 11
000
FTUS41 KCAR 282327
TAFHUL
TAF
KHUL 282327Z 2900/2924 28007KT P6SM FEW030 OVC060
     FM291600 31012G20KT 1SM -SHSN SCT007 OVC012
     FM291900 31015G25KT P6SM SCT020 BKN040=

USA.gov is the U.S. government's official web portal to all federal, state and local government web resources and services.